Trang Download Tổng hợp



Tổng số tìm thấy chuỗi 'ctrlhd': 1053 (1053) , thời gian tìm:

First | Prev | 4 5 6 7 8 [9] 10 11 12 13 14 ... 22 | Next | Last
STT Thời gian Kích thước Tên file
401 2017-09-19 8.79 GB Pirates.of.the.Caribbean.Dead.Men.Tell.No.Tales.2017.720p.BluRay.DTS.x264 CtrlHD.mkv
/Phim tong hop
402 2017-09-18 13.06 GB The.Last.Temptation.of.Christ.1988.Criterion.720p.BluRay.x264 CtrlHD.mkv
/Phim tong hop
403 2017-09-11 8.60 GB Sideways.2004.720p.BluRay.DTS.x264 CtrlHD.mkv
/Phim tong hop
404 2017-09-07 7.87 GB The.Matrix.Reloaded.2003.720p.BluRay.x264 CtrlHD.mkv
/Phim tong hop
405 2017-09-07 11.24 GB The.Matrix.Reloaded.2003.1080p.BluRay.DD5.1.x264 CtrlHD.mkv
/Phim tong hop
406 2017-09-07 7.75 GB The.Matrix.1999.720p.BluRay.x264 CtrlHD.mkv
/Phim tong hop
407 2017-09-07 12.04 GB The.Matrix.1999.1080p.BluRay.DD5.1.x264 CtrlHD.mkv
/Phim tong hop
408 2017-09-01 25.15 GB The.Godfather.1972.1080p.BluRay.DD5.1.x264 CtrlHD.mkv
/Phim tong hop
409 2017-09-01 6.20 GB Breakfast.at.Tiffany's.1961.720p.HDTV.DD5.1.x264 CtrlHD.mkv
/Phim tong hop
410 2017-08-24 13.08 GB The Great Dictator 1940 1080p BluRay x264 CtrlHD.mkv
/Phim tong hop
411 2017-08-22 6.36 GB Fast and Furious 2009 720p BluRay DTS x264 CtrlHD.mkv
/Bộ sưu tập/Bo Suu Tap Qua Nhanh Qua Nguy Hiem 1-8/Fast and Furious 2009 720p BluRay DTS x264-CtrlHD.mkv / Quá Nhanh Quá Nguy Hiểm 8 (2016) | Chia tay Brian O’Conner – Paul Walker nhưng cuộc phiêu lưu tốc độ của Dominic Toretto vẫn còn tiếp diễn.
412 2017-08-21 12.21 GB Children of Men 2006 1080p BluRay DTS x264 CtrlHD.mkv
/Phim tong hop
413 2017-08-18 6.53 GB The.Tale.of.Zatoichi.1962.720p.BluRay.FLAC.x264 CtrlHD.mkv
/Phim tong hop
414 2017-08-15 6.34 GB The.Town.2010.EXTENDED.720p.Blu ray.DTS.x264 CtrlHD.mkv
/Phim tong hop
415 2017-08-14 5.11 GB Cat People 1982 720p BluRay DD5.1 x264 CtrlHD.mkv
/Phim tong hop
416 2017-08-14 137.68 KB A.Clockwork.Orange.1971.720p.BluRay.DTS.x264 CtrlHD.srt
/Phim tong hop
417 2017-08-14 4.38 GB A.Clockwork.Orange.1971.720p.BluRay.DTS.x264 CtrlHD.mkv
/Phim tong hop
418 2017-08-11 14.34 GB In.Bruges.2008.1080p.BluRay.DTS.x264 CtrlHD.mkv
/Phim tong hop
419 2017-08-09 7.20 GB Elite Squad.2007.720p.Blu ray.DD5.1.x264 CtrlHD.mkv
/Phim tong hop
420 2017-08-07 6.42 GB The Pursuit of Happyness 2006 720p BluRay DTS x264 CtrlHD.mkv
/Bộ sưu tập/Tổng hợp 15 phim luyện tiếng Anh/Level 2/The Pursuit of Happyness 2006 720p BluRay DTS x264-CtrlHD.mkv / 15 Bộ Phim Tiếng Anh Giúp Cải Thiện Kỹ Năng Nghe Hiệu Quả () | Level 1:
421 2017-08-07 13.71 GB Pirates.of.the.Caribbean.On.Stranger.Tides.2011.1080p.BluRay.DTS.x264 CtrlHD.mkv
/Bộ sưu tập/Tổng hợp 15 phim luyện tiếng Anh/Level 1/Pirates.of.the.Caribbean.On.Stranger.Tides.2011.1080p.BluRay.DTS.x264-CtrlHD.mkv / 15 Bộ Phim Tiếng Anh Giúp Cải Thiện Kỹ Năng Nghe Hiệu Quả () | Level 1:
422 2017-07-26 6.38 GB Limitless UNRATED 2011 720p VIE BluRay x264 DTS CtrlHD.mkv
/Phim tong hop
423 2017-07-26 10.01 GB Limitless.2011.UNRATED.1080p.BluRay.DTS.x264 CtrlHD.mkv
/Phim tong hop
424 2017-07-20 18.99 GB Three.Days.Of.The.Condor.1975.1080p.BluRay.DTS.x264 CtrlHD.mkv
/Phim tong hop
425 2017-07-06 7.94 GB Mulholland.Drive.2001.720p.BluRay.x264 CtrlHD.mkv
/Phim tong hop
426 2017-07-06 6.55 GB Belle.de.jour.1967.720p.BluRay.x264 CtrlHD.mkv
/Phim tong hop
427 2017-06-30 5.34 GB Rambo IV.2008.ViE.720p.BluRay.DTS.x264 CtrlHD.mkv
428 2017-06-30 4.37 GB No.Reservations.2007.720p.BluRay.x264 CtrlHD.mkv
/Phim tong hop
429 2017-06-23 9.49 GB Nine Onehalf Weeks 1986 720p BluRay DD5.1 x264 CtrlHD.mkv
/Phim tong hop
430 2017-06-21 12.57 GB Transformers.Dark.Of.The.Moon.2011.ViE.720p.Blu ray.DTS.x264 CtrlHD.VAV.mkv
/Bộ sưu tập/Bộ Sưu Tập Phim Robot Đại Chiến - Transformers Collections (2007 - 2017)/Transformers.Dark.Of.The.Moon.2011.ViE.720p.Blu-ray.DTS.x264-CtrlHD.VAV.mkv / Bộ Sưu Tập Phim Robot Đại Chiến (2017) | Phần 1: Transformers (2007): Cách đây chừng 4 triệu
431 2017-06-16 7.35 GB The.Matrix.Revolutions.2003.720p.BluRay.x264 CtrlHD.mkv
/Phim tong hop
432 2017-06-16 10.51 GB The.Matrix.Revolutions.2003.1080p.BluRay.DD5.1.x264 CtrlHD.mkv
/Phim tong hop
433 2017-06-15 9.94 GB Antichrist 2009 1080p BluRay DTS x264 CtrlHD.mkv
/Phim tong hop
434 2017-06-14 14.00 GB Lust Caution.2007.UNRATED.1080p.BluRay.DTS.x264 CtrlHD.mkv
/Phim tong hop
435 2017-06-08 4.37 GB Rush.Hour.3.2007.720p.BluRay.DTS.x264 CtrlHD.mkv
436 2017-06-08 5.13 GB The.Man.Who.Knew.Too.Little.1997.720p.BluRay.x264 CtrlHD.mkv
/Phim tong hop
437 2017-06-05 10.87 GB Thor.2011.1080p.BluRay.DTS.x264 CtrlHD.mkv
438 2017-06-05 167.43 KB Thor.2011.1080p.BluRay.DTS.x264 CtrlHD.srt
439 2017-06-05 5.30 GB The.Transporter.2005.ViE.UNCUT.720p.BluRay.DTS.x264 CtrlHD.VAV.mkv
440 2017-06-03 5.44 GB Rambo.III.1988.ViE.720p.BluRay.DTS.x264 CtrlHD.mkv
441 2017-06-03 5.36 GB Rambo.First.Blood.Part.I.1982.ViE.720p.BluRay.DTS.x264 CtrlHD.mkv
442 2017-06-01 6.71 GB Trainspotting 1996 Hybrid 720p BluRay DTS x264 CtrlHD.mkv
/Phim tong hop
443 2017-06-01 12.08 GB Trainspotting 1996 1080p BluRay DTS x264 CtrlHD.mkv
/Phim tong hop
444 2017-05-30 6.71 GB Trainspotting 1996 Hybrid 720p BluRay DTS x264 CtrlHD.mkv
445 2017-05-26 4.37 GB 14 Blades 2010 720p Blu ray x264 CtrlHD.mkv
446 2017-05-12 6.05 GB Le.Petit.Nicolas.2009.720p.BluRay.x264 CtrlHD.mkv
/Phim tong hop
447 2017-05-05 5.84 GB Dolls 1987 ViE 720p BluRay DD2.0 x264 CtrlHD.mkv
448 2017-04-27 5.94 GB Grave.of.the.Fireflies.1988.720p.BluRay.FLAC.x264 CtrlHD.mkv
/Bộ sưu tập/10 Bộ Phim Làm Bạn Đau Lòng Đến Mức Không Thể Xem Lại Lần 2/Grave.of.the.Fireflies.1988.720p.BluRay.FLAC.x264-CtrlHD.mkv / 10 Bộ Phim Làm Bạn Đau Lòng Đến Mức Không Thể Xem Lại Lần 2 () | 1. Shame
449 2017-04-27 6.30 GB Blue.Valentine.2010.720p.BluRay.DTS.x264 CtrlHD.mkv
/Bộ sưu tập/10 Bộ Phim Làm Bạn Đau Lòng Đến Mức Không Thể Xem Lại Lần 2/Blue.Valentine.2010.720p.BluRay.DTS.x264-CtrlHD.mkv / Lễ Tình Nhân Buồn (2010) | Khi yêu, con người ta không bao giờ nghĩ được bất cứ điều gì xa xôi hơn người yêu dấu của mình. Người
450 2017-04-27 6.63 GB The Road 2009 720p BluRay DTS x264 CtrlHD.mkv
/Bộ sưu tập/10 Bộ Phim Làm Bạn Đau Lòng Đến Mức Không Thể Xem Lại Lần 2/The Road 2009 720p BluRay DTS x264-CtrlHD.mkv / 10 Bộ Phim Làm Bạn Đau Lòng Đến Mức Không Thể Xem Lại Lần 2 () | 1. Shame

First | Prev | 4 5 6 7 8 [9] 10 11 12 13 14 ... 22 | Next | Last

chat icon Hỗ trợ trực tuyến
Nhập nội dung trợ giúp: X